Tracking 28125 objects as of 4-Oct-2023
HD Live streaming from Space Station
objects crossing your sky now

THORAD AGENA D DEB

Track THORAD AGENA D DEB now!
10-day predictions


NORAD ID: 4971
Int'l Code: 1970-025GR
Perigee: 1,068.9 km
Apogee: 1,595.6 km
Inclination: 99.9 °
Period: 112.1 minutes
Semi major axis: 7703 km
RCS: 0.0605 m2 (small)
Launch date: April 8, 1970
Source: United States (US)
Launch site: AIR FORCE WESTERN TEST RANGE (AFWTR)

Note: This is SATELLITE DEBRIS
Your satellite tracking list
Your tracking list is empty




NASA's NSSDC Master Catalog

Two Line Element Set (TLE):
1 04971U 70025GR  23276.04041348  .00000279  00000-0  10227-2 0  9991
2 04971  99.8664 296.5874 0341901 203.3730 217.3016 12.84078666500825
Source of the keplerian elements: AFSPC